Location: Carbonear
(47.7333°N, 53.2500°W)
Time: 21:35:46
(UTC+00:00)

STRAND 1 - Pass Details

Date: 05 December 2022
Orbit: 768 x 779 km, 98.4° (Epoch: 01 February)

Event Time Altitude Azimuth Distance (km) Brightness Sun altitude
Exits shadow 21:14:19 10° 120° (ESE) 2,275 ? -14.9°
Drops below altitude 10° 21:14:29 10° 121° (ESE) 2,307 ? -14.9°
Sets 21:17:52 0° 145° (SE) 3,228 ? -15.5°
